Starlink 5335

operational
NORAD ID: 56508 Int'l Des: 2023-065 Owner: SPXS Country: US Constellation: starlink
LEOCIRCULAR

About Starlink 5335

Description loading...

Live Position

Loading 3D Globe...

Upcoming Passes

Altitude History

Altitude vs Time

uPlot chart will show altitude changes over time

Two-Line Element Set

1 56508U 23065F 25305.40012601 -.00000536 00000-0 -24631-4 0 9995
2 56508 43.0007 187.6933 0000779 281.1524 78.9231 15.02544014137325
Epoch: Nov 1, 2025 • Age: 21 hours

Current Status

Altitude 558.2 km
Velocity 7.59 km/s
Sub-Earth Point 15.55°N, 61.76°E
Launch Date May 14, 2023
Age 2.4 years
Type internet

Technical Details

Classification Payload
Mass 305.00 kg
Dry Mass 290.00 kg
Total Mass 305.00 kg
Length 0.20 m
Diameter 2.80 m
Span 9.00 m
Shape Box + pan
Manufacturer SPXS
Bus Type Starlink
Phase Status In Orbit
Owner/State SPXS/US

Large Constellations

Loading constellations...